Location: Cactus School
(34.5700°N, 118.0931°W)
Time: 10:24:46
(UTC-07:00)

SEEDS - Visible Passes

Search period start: 28 May 2024 00:00
Search period end: 07 June 2024 00:00
Orbit: 551 x 560 km, 97.7° (Epoch: 28 May)

Date Brightness Start Highest point End Pass type
(mag) Time Alt. Az. Time Alt. Az. Time Alt. Az.
28 May ? 04:04:48 10° NE 04:08:07 25° E 04:11:24 10° SSE visible
29 May ? 04:02:27 10° NE 04:05:41 23° E 04:08:52 10° SSE visible
30 May ? 04:00:07 10° NE 04:03:13 21° E 04:06:18 10° SSE visible
31 May ? 03:57:45 10° NE 04:00:44 20° E 04:03:43 10° SE visible
01 Jun ? 03:55:23 10° NE 03:58:14 19° E 04:01:05 10° SE visible
02 Jun ? 03:53:01 10° NE 03:55:44 17° E 03:58:26 10° SE visible
03 Jun ? 03:50:40 10° NE 03:53:12 16° E 03:55:44 10° SE visible
04 Jun ? 03:48:18 10° ENE 03:50:39 15° E 03:53:01 10° SE visible
05 Jun ? 03:45:57 10° ENE 03:48:06 14° E 03:50:15 10° SE visible
06 Jun ? 03:43:38 10° ENE 03:45:31 13° E 03:47:26 10° ESE visible
